Accueil
METAR-TAF:

METAR-TAF

Aéroports :

Montauk, New York, États-Unis

latitude: 41-04-23N, longitude: 071-55-24W, altitude: 2 m

Observation

Le bulletin a été fait il y a 46 minutes, à 11:54 UTC
Vent 8 kt de est avec des rafales jusqu'à 18 kt
Température 17°C
Humidité 94%
Pression 1031 hPa

METAR: KMTP 251154Z AUTO 09008G18KT 17/16 A3045 RMK AO1 SLP311 P0001 60002 70002 T01670156 10167 20161 56004

Heure: 08:40 (12:40 UTC)


TAF: absent

Observations et prévisions météorologiques de plus de 4000 aéroports (messages METAR et TAF).

Les stations disponibles sont représentées par des disques jaunes et rouges sur la carte.

Passer la souris dessus pour voir le nom de la station.

Cliquer dessus pour voir les observations et prévisions météorologiques.

Pour changer de carte: cliquez sur les boutons verts avec une croix noire pour zoomer, sur le bouton vert avec un tiret pour effectuer un zoom arrière, ou sur les flèches vertes pour les cartes adjacentes.


METAR-TAF: